Location: Kitchener
(43.4500°N, 80.5000°W)
Time: 10:04:34
(UTC-04:00)

ATLAS 5 CENTAUR R/B - Visible Passes

Search period start: 28 March 2017 00:00
Search period end: 07 April 2017 00:00
Orbit: 637 x 1023 km, 63.4° (Epoch: 27 March)

Date Brightness Start Highest point End Pass type
(mag) Time Alt. Az. Time Alt. Az. Time Alt. Az.
28 Mar 5.1 00:31:23 10° NNW 00:32:06 10° NNW 00:32:49 10° N visible
28 Mar 5.2 02:18:14 10° N 02:19:34 11° NNE 02:20:56 10° NNE visible
28 Mar 4.2 04:01:20 10° NNW 04:06:17 28° NE 04:11:36 10° E visible
28 Mar 2.4 05:45:33 10° NW 05:51:33 75° WSW 05:58:04 10° SSE visible
28 Mar 2.0 20:37:01 10° SSW 20:41:30 48° ESE 20:46:23 10° NE visible
28 Mar 3.8 22:22:15 10° W 22:26:26 28° NW 22:30:57 10° NNE visible
29 Mar 5.1 00:12:05 10° NNW 00:13:04 10° NNW 00:14:04 10° N visible
29 Mar 5.2 01:59:25 10° N 02:00:32 11° NNE 02:01:41 10° NNE visible
29 Mar 4.3 03:42:26 10° NNW 03:47:18 27° NE 03:52:32 10° E visible
29 Mar 2.3 05:26:36 10° NW 05:32:37 79° SW 05:39:07 10° SSE visible
29 Mar 2.1 20:18:08 10° S 20:22:35 45° ESE 20:27:24 10° NE visible
29 Mar 3.7 22:03:13 10° W 22:07:27 30° NW 22:12:03 10° NNE visible
29 Mar 5.1 23:52:50 10° NNW 23:54:02 11° NNW 23:55:15 10° N visible
30 Mar 5.2 01:40:37 10° N 01:41:30 10° NNE 01:42:23 10° NNE visible
30 Mar 4.3 03:23:31 10° NNW 03:28:18 26° NE 03:33:27 10° E visible
30 Mar 2.3 05:07:39 10° NW 05:13:40 83° SW 05:20:11 10° SSE visible
30 Mar 3.7 21:44:10 10° WSW 21:48:28 31° NW 21:53:08 10° NNE visible
30 Mar 5.1 23:33:37 10° NNW 23:35:01 11° NNW 23:36:25 10° N visible
31 Mar 5.2 01:21:56 10° N 01:22:28 10° NNE 01:22:59 10° NNE visible
31 Mar 4.3 03:04:36 10° NNW 03:09:19 25° NE 03:14:21 10° E visible
31 Mar 2.3 04:48:42 10° NW 04:54:43 87° SW 05:01:15 10° SSE visible
31 Mar 3.8 06:35:06 10° WNW 06:38:50 17° WSW 06:42:42 10° SW visible
31 Mar 3.6 21:25:09 10° WSW 21:29:29 32° NW 21:34:13 10° NNE visible
31 Mar 5.0 23:14:25 10° NNW 23:15:58 11° NNW 23:17:34 10° N visible
01 Apr 4.4 02:45:42 10° NNW 02:50:20 24° NE 02:55:16 10° E visible
01 Apr 2.3 04:29:46 10° NW 04:35:46 89° ENE 04:42:18 10° SE visible
01 Apr 3.7 06:15:59 10° WNW 06:19:56 18° WSW 06:24:02 10° SSW visible
01 Apr 3.6 21:06:08 10° WSW 21:10:30 34° NW 21:15:17 10° NNE visible
01 Apr 5.0 22:55:13 10° NW 22:56:57 11° NNW 22:58:43 10° N visible
02 Apr 4.4 02:26:47 10° NNW 02:31:20 23° NE 02:36:10 10° E visible
02 Apr 2.3 04:10:49 10° NW 04:16:50 85° NE 04:23:21 10° SE visible
02 Apr 3.6 05:56:53 10° WNW 06:01:01 19° WSW 06:05:20 10° SSW visible
02 Apr 3.5 20:47:07 10° WSW 20:51:32 36° NW 20:56:21 10° NNE visible
02 Apr 4.9 22:36:03 10° NW 22:37:55 12° NNW 22:39:51 10° N visible
03 Apr 4.4 02:07:53 10° NNW 02:12:19 22° NE 02:17:03 10° E visible
03 Apr 2.4 03:51:53 10° NW 03:57:52 81° NE 04:04:24 10° SE visible
03 Apr 3.6 05:37:47 10° WNW 05:43:01 19° WSW 05:46:38 10° SSW visible
03 Apr 3.4 20:28:06 10° WSW 20:32:33 38° NW 20:37:26 10° NNE visible
03 Apr 4.9 22:16:53 10° NW 22:18:53 12° NNW 22:20:58 10° N visible
04 Apr 4.4 01:48:58 10° NNW 01:53:19 21° NNE 01:54:52 19° NE visible
04 Apr 3.4 03:32:56 10° NW 03:36:18 36° NNW 03:36:18 36° NNW visible
04 Apr4.705:30:28S05:30:28S05:17:44WNWvisible
04 Apr 4.9 21:57:43 10° NW 21:59:51 12° NNW 22:02:05 10° N visible
05 Apr 4.4 01:30:04 10° NNW 01:34:19 20° NNE 01:35:13 20° NE visible
05 Apr 3.8 03:14:00 10° NNW 03:16:41 29° NNW 03:16:41 29° NNW visible
05 Apr 4.8 21:38:33 10° NW 21:40:50 13° NNW 21:43:12 10° N visible
06 Apr 4.4 01:11:09 10° NNW 01:15:19 20° NNE 01:16:02 19° NE visible
06 Apr 3.9 02:55:03 10° NNW 02:57:32 27° NNW 02:57:32 27° NNW visible
06 Apr 4.8 21:19:24 10° NW 21:21:49 13° NNW 21:24:19 10° N visible
